METEOR 2-17 DEB, 35371

Orbit data source: Space-Track

METEOR 2-17 DEB, 35371 is space debris in LEO originally from a launch on Sat, 30 Jan 1988 UTC launched from the Plesetsk Missile And Space Complex (PKMTR). Debris objects in space refer to the collection of defunct objects orbiting the Earth. Examples of debris include non-operational satellites, rocket bodies, and fragments generated from explosions, collisions, or faulty payload assembly.

Loading next visibility...
Identifier
35371, 1988-005AF
Orbit
LEO
Country
Flag of CISCIS
Related business
Manufacturer
Unknown
Mission
Spacecraft
Bus & Motor
Unknown
Mass
Unknown
Launch date (UTC)
1988-01-30 (38 years ago)
Launch vehicle
Unknown
Launch site
Plesetsk Missile And Space Complex (PKMTR)
Object type
Payload
Rocket body
Debris
Shape & HBR
Unknown
Radar Cross Section
Small (<0.1 m²)

Expand to show TLE details & history
Last TLE update: 5 days ago

TLE from 5 days ago
0 METEOR 2-17 DEB
1 35371U 88005AF  25257.28275508  .00001557  00000-0  97139-3 0  9998
2 35371  82.5098  98.0892 0018402 292.9970  66.9260 14.04198878621774
Epoch: 2025-09-14T06:47Z
TLE epoch observation values (Epoch: 2025-09-14T06:47:10.038Z)
Latitude
-0.00004°
Longitude
2.79338°
Altitude
877.006 km
Speed
7.416 km/s
True Right ascension
06h 32m 21s
True Declination
0° 00' 00"
Sunlit
Object was in daylight at epoch
Visualization orbit readout
Latitude
Unknown
Longitude
Unknown
Altitude
Unknown
Speed
Unknown
Apparent Right ascension
Unknown
Apparent Declination
Unknown
Sunlit
N/A
Visualization observer readout
Local Sidereal Time
14:41:14
Azimuth
Unknown
Elevation
Unknown
Doppler factor
Unknown
Orbital elements
Apogee altitude
889.767 km
Perigee altitude
863.067 km
Semi-major axis
7,254.554 km
Eccentricity
0.00184
Inclination
82.5098°
RAAN
98.0892°
Arg. of periapsis
292.997°
True anomaly
67.12018°
Mean anomaly
66.926°
Eccentric anomaly
67.02307°
Mean motion
3.51259 °/min
Orbital period
102.49 mins
BSTAR
0.00097139
Loading maneuver chart data...
Computing Atmospheric mass density...
Loading historical data...
Loading historical data...
Loading historical data...
Loading historical data...
Loading historical data...
Loading historical data...
Loading historical data...

Documentation

Showing up to 5 results
|